Fredericksburg, Texas, United States (78624)
Lat: 30.27N, Lon: 98.87W
Wx Zone: TXZ188
Local Info
Past Weather Observations for Today

NOTE: This archive is for the closest National Weather Service station to Fredericksburg. Information may differ from the station used for current weather conditions.

Click here for Long-term Archive

Time Weather Temperature Dewpoint Humidity Pressure Winds Precip Visibility
13:55
Partly Cloudy
66°F / 19°C 57°F / 14°C 73% 30.04 in
(1017 mb)
Calm - 10SM
13:35
Clear
66°F / 19°C 57°F / 14°C 73% 30.06 in
(1018 mb)
Calm - 10SM
13:15
Clear
64°F / 18°C 57°F / 14°C 78% 30.06 in
(1018 mb)
Calm - 10SM
12:55
Clear
64°F / 18°C 59°F / 15°C 83% 30.06 in
(1018 mb)
Calm - 10SM
12:35
Partly Cloudy
63°F / 17°C 57°F / 14°C 83% 30.09 in
(1019 mb)
WNW 4.6 mph
(WNW 7 kph)
- 10SM
12:15
Overcast
61°F / 16°C 57°F / 14°C 88% 30.09 in
(1019 mb)
NNW 6.9 mph
(NNW 11 kph)
- 10SM
11:55
Overcast
59°F / 15°C 59°F / 15°C 100% 30.12 in
(1020 mb)
NW 4.6 mph
(NW 7 kph)
- 10SM
11:35
Overcast
57°F / 14°C 57°F / 14°C 100% 30.12 in
(1020 mb)
NNW 6.9 mph
(NNW 11 kph)
- 7SM
11:15
Overcast
57°F / 14°C 57°F / 14°C 100% 30.15 in
(1021 mb)
NW 6.9 mph
(NW 11 kph)
- 7SM
10:55
Overcast
Fog And Mist
57°F / 14°C 55°F / 13°C 94% 30.15 in
(1021 mb)
W 3.5 mph
(W 6 kph)
- 4SM
10:35
Overcast
Fog And Mist
55°F / 13°C 55°F / 13°C 100% 30.15 in
(1021 mb)
W 5.8 mph
(W 9 kph)
- 5SM
10:15
Overcast
57°F / 14°C 55°F / 13°C 94% 30.15 in
(1021 mb)
W 3.5 mph
(W 6 kph)
- 7SM
09:55
Overcast
Fog And Mist
55°F / 13°C 55°F / 13°C 100% 30.15 in
(1021 mb)
W 3.5 mph
(W 6 kph)
- 4SM
09:35
Overcast
Fog And Mist
55°F / 13°C 55°F / 13°C 100% 30.15 in
(1021 mb)
Calm - 3SM
09:15
Overcast
Fog And Mist
54°F / 12°C 54°F / 12°C 100% 30.12 in
(1020 mb)
Calm - 4SM
08:55
Overcast
Fog
54°F / 12°C 54°F / 12°C 100% 30.12 in
(1020 mb)
Calm - 1/2SM
08:35
Overcast
Fog
54°F / 12°C 54°F / 12°C 100% 30.12 in
(1020 mb)
Calm - 1/4SM
08:15
Overcast
Fog
54°F / 12°C 54°F / 12°C 100% 30.12 in
(1020 mb)
Calm - 1/2SM
07:55
Overcast
Fog
54°F / 12°C 52°F / 11°C 94% 30.12 in
(1020 mb)
Calm - 1/2SM
07:35
Overcast
Fog
54°F / 12°C 52°F / 11°C 94% 30.12 in
(1020 mb)
SSE 3.5 mph
(SSE 6 kph)
- 1/2SM
07:15
Overcast
Fog
54°F / 12°C 52°F / 11°C 94% 30.12 in
(1020 mb)
Calm - 1/2SM
06:55
Overcast
Fog
54°F / 12°C 52°F / 11°C 94% 30.12 in
(1020 mb)
Calm - 1/2SM
06:35
Overcast
Fog
52°F / 11°C 52°F / 11°C 100% 30.09 in
(1019 mb)
Calm - 1/2SM
06:15
Overcast
Fog
52°F / 11°C 52°F / 11°C 100% 30.09 in
(1019 mb)
Calm - 1/2SM
05:55
Overcast
Fog
52°F / 11°C 52°F / 11°C 100% 30.09 in
(1019 mb)
Calm - 1/4SM
05:35
Overcast
Fog
52°F / 11°C 52°F / 11°C 100% 30.09 in
(1019 mb)
Calm - 1/4SM
05:15
Overcast
Fog
52°F / 11°C 52°F / 11°C 100% 30.06 in
(1018 mb)
Calm - 1/4SM
04:55
Overcast
Fog
52°F / 11°C 52°F / 11°C 100% 30.06 in
(1018 mb)
Calm - 1/4SM
04:35
Overcast
Fog
52°F / 11°C 52°F / 11°C 100% 30.06 in
(1018 mb)
Calm - 1/4SM
04:15
Overcast
Fog
52°F / 11°C 52°F / 11°C 100% 30.06 in
(1018 mb)
Calm - 1/4SM
03:55
Overcast
Fog
52°F / 11°C 52°F / 11°C 100% 30.06 in
(1018 mb)
Calm - 1/4SM
03:35
Overcast
Fog
52°F / 11°C 52°F / 11°C 100% 30.06 in
(1018 mb)
Calm - 1/4SM
03:15
Overcast
Fog
52°F / 11°C 52°F / 11°C 100% 30.06 in
(1018 mb)
Calm - 1/4SM
02:55
Overcast
Fog
52°F / 11°C 52°F / 11°C 100% 30.09 in
(1019 mb)
Calm - 1/4SM
02:35
Overcast
Fog
52°F / 11°C 52°F / 11°C 100% 30.09 in
(1019 mb)
Calm - 1/4SM
02:15
Overcast
Fog
52°F / 11°C 52°F / 11°C 100% 30.09 in
(1019 mb)
Calm - 1/4SM
01:55
Overcast
Fog
52°F / 11°C 52°F / 11°C 100% 30.09 in
(1019 mb)
Calm - 1/4SM
01:35
Overcast
Fog
52°F / 11°C 52°F / 11°C 100% 30.09 in
(1019 mb)
Calm - 1/4SM
01:15
Overcast
Fog
52°F / 11°C 52°F / 11°C 100% 30.09 in
(1019 mb)
Calm - 1/4SM
00:55
Overcast
Fog
52°F / 11°C 52°F / 11°C 100% 30.09 in
(1019 mb)
Calm - 1/4SM
00:35
Overcast
Fog
52°F / 11°C 52°F / 11°C 100% 30.09 in
(1019 mb)
Calm - 1/4SM
00:15
Overcast
Fog
52°F / 11°C 52°F / 11°C 100% 30.12 in
(1020 mb)
Calm - 1/2SM
Time Weather Temperature Dewpoint Humidity Pressure Winds Precip Visibility


Weather for websites

WeatherForYou.com, LLC is not responsible for any damages or problems caused by this service. Current weather conditions are obtained from the closest station including government and personal stations which may have varying degrees of accuracy. Weather forecasts are derived from the NOAA NDFD. Like all things, this site belongs to Jesus Christ... He just trusts me to maintain it. If you have any questions or comments email webmaster@weatherforyou.com

Copyright © 2014, WeatherForYou.com LLC. All rights reserved.